Lid_Strength_Index
10 10 10 9 8 8 9 9 10 12 11 8 7 4 4 5 4 4 5 4 3 3 1 1 0 -0 0 -0 -0 -0 -0 -0 -0 0 -1 -1 -1 -1
10 10 10 9 8 8 9 9 9 10 11 7 5 4 4 5 5 5 5 5 4 3 3 2 1 0 1 1 1 1 1 0 1 1 0 -1 -1 -1
11 11 10 9 9 8 8 9 9 8 9 6 4 4 5 6 5 5 5 5 6 4 3 3 2 1 2 2 2 2 1 2 1 1 1 1 0 -0
12 11 10 10 9 8 9 9 9 8 7 7 5 5 6 5 5 5 6 6 6 5 3 2 2 2 2 3 3 3 3 2 2 2 2 1 1 1
12 11 10 10 9 9 9 9 8 7 5 5 6 5 6 6 6 5 6 6 6 5 5 4 4 3 3 3 3 3 4 3 3 3 3 4 2 0
11 11 10 10 9 9 9 9 8 8 6 6 6 7 7 6 6 7 9 7 7 6 6 5 4 5 4 3 3 4 4 4 4 4 4 4 4 3
11 11 11 9 8 7 8 8 8 8 7 8 8 8 8 8 8 8 9 9 7 6 7 7 6 6 6 5 4 4 4 4 5 5 4 4 4 4
11 11 11 9 8 7 6 7 7 8 8 9 9 9 8 8 8 9 10 10 11 5 7 7 6 6 7 6 4 4 3 3 5 6 6 5 5 5
10 10 11 11 9 9 8 8 7 7 7 8 9 8 9 8 8 11 10 11 10 8 7 8 7 7 7 6 5 4 4 4 4 5 7 7 6 6
10 10 10 11 10 10 10 10 9 9 9 10 9 8 7 9 7 8 10 11 8 8 7 9 7 7 7 7 6 5 5 5 6 5 6 7 8 6
9 10 10 11 10 9 10 10 9 9 9 8 7 7 6 6 6 7 8 9 10 9 8 9 8 8 7 7 7 6 6 7 6 6 6 7 8 9
10 10 9 11 10 8 9 10 12 11 10 10 9 10 10 9 8 8 8 10 10 10 8 9 9 9 9 7 7 7 7 7 8 7 7 7 8 9
10 10 10 9 8 8 8 9 10 9 10 10 11 10 10 10 9 9 9 9 9 10 8 9 9 9 9 9 8 7 7 8 8 8 8 8 8 8
10 10 10 9 9 9 9 8 8 8 10 11 11 11 11 10 10 10 10 9 9 9 8 9 9 10 10 10 10 8 8 8 8 9 9 9 9 9
9 9 9 8 8 9 9 8 8 10 11 12 12 11 11 10 11 10 9 9 10 9 10 9 9 9 9 10 10 10 10 9 8 8 8 9 9 9
7 8 8 8 8 9 10 9 10 11 11 12 12 11 11 11 10 10 10 10 10 10 9 9 10 10 10 10 10 10 10 10 9 9 9 9 8 8
9 9 8 9 9 10 12 11 12 11 12 12 12 12 12 11 11 10 10 10 11 11 10 9 9 9 9 9 10 10 10 10 9 10 9 10 9 9
10 11 10 10 10 11 12 13 13 12 12 12 12 12 12 12 12 12 11 11 12 11 11 10 10 9 9 9 9 9 9 9 9 10 10 10 10 9
11 12 10 11 11 11 12 13 13 13 12 12 12 12 12 12 12 12 12 12 12 12 12 11 11 11 12 13 10 9 10 10 10 10 10 10 10 10
10 12 12 11 11 12 12 14 14 14 13 12 12 12 12 12 13 13 13 13 13 12 13 12 12 12 12 12 12 10 10 11 11 11 11 10 10 10
10 11 12 12 12 12 12 13 14 14 14 13 12 13 12 12 13 12 13 13 13 13 13 13 12 12 10 11 12 12 11 11 10 10 10 11 12 11
9 10 11 12 12 12 13 13 14 14 14 14 13 13 13 13 13 13 13 13 13 13 13 12 12 11 11 12 13 13 12 11 11 11 11 10 11 14
9 10 11 12 13 12 13 13 13 14 14 14 14 13 13 13 13 13 13 13 13 13 13 13 13 12 12 13 13 13 14 13 12 12 12 12 12 12